Year,Month,Day,Hour,Minute,Value (Times are PST for temperature in C)
2008,06,30,00,00,17.30
2008,06,30,00,01,17.10
2008,06,30,00,02,17.00
2008,06,30,00,03,16.90
2008,06,30,00,04,16.80
2008,06,30,00,05,16.70
2008,06,30,00,06,16.60
2008,06,30,00,07,16.50
2008,06,30,00,08,16.40
2008,06,30,00,09,16.40
2008,06,30,00,10,16.30
2008,06,30,00,11,16.30
2008,06,30,00,12,16.30
2008,06,30,00,13,16.20
2008,06,30,00,14,16.20
2008,06,30,00,15,16.20
2008,06,30,00,16,16.10
2008,06,30,00,17,16.10
2008,06,30,00,18,16.10
2008,06,30,00,19,16.10
2008,06,30,00,20,16.10
2008,06,30,00,21,16.10
2008,06,30,00,22,16.10
2008,06,30,00,23,16.10
2008,06,30,00,24,16.10
2008,06,30,00,25,16.00
2008,06,30,00,26,16.00
2008,06,30,00,27,16.00
2008,06,30,00,28,16.10
2008,06,30,00,29,16.10
2008,06,30,00,30,16.10
2008,06,30,00,31,16.10
2008,06,30,00,32,16.10
2008,06,30,00,33,15.90
2008,06,30,00,34,15.90
2008,06,30,00,35,15.90
2008,06,30,00,36,16.00
2008,06,30,00,37,16.10
2008,06,30,00,38,16.10
2008,06,30,00,39,16.20
2008,06,30,00,40,16.20
2008,06,30,00,41,16.30
2008,06,30,00,42,16.30
2008,06,30,00,43,16.40
2008,06,30,00,44,16.40
2008,06,30,00,45,16.40
2008,06,30,00,46,16.40
2008,06,30,00,47,16.40
2008,06,30,00,48,16.40
2008,06,30,00,49,16.40
2008,06,30,00,50,16.40
2008,06,30,00,51,16.40
2008,06,30,00,52,16.40
2008,06,30,00,53,16.40
2008,06,30,00,54,16.40
2008,06,30,00,55,16.40
2008,06,30,00,56,16.40
2008,06,30,00,57,16.30
2008,06,30,00,58,16.30
2008,06,30,00,59,16.30
2008,06,30,01,00,16.20
2008,06,30,01,01,16.20
2008,06,30,01,02,16.10
2008,06,30,01,03,16.10
2008,06,30,01,04,16.10
2008,06,30,01,05,16.20
2008,06,30,01,06,16.20
2008,06,30,01,07,16.20
2008,06,30,01,08,16.30
2008,06,30,01,09,16.30
2008,06,30,01,10,16.40
2008,06,30,01,11,16.40
2008,06,30,01,12,16.40
2008,06,30,01,13,16.50
2008,06,30,01,14,16.60
2008,06,30,01,15,16.70
2008,06,30,01,16,16.70
2008,06,30,01,17,16.70
2008,06,30,01,18,16.70
2008,06,30,01,19,16.70
2008,06,30,01,20,16.70
2008,06,30,01,21,16.80
2008,06,30,01,22,16.80
2008,06,30,01,23,16.80
2008,06,30,01,24,16.90
2008,06,30,01,25,16.90
2008,06,30,01,26,16.90
2008,06,30,01,27,17.00
2008,06,30,01,28,17.00
2008,06,30,01,29,17.00
2008,06,30,01,30,17.00
2008,06,30,01,31,17.00
2008,06,30,01,32,17.10
2008,06,30,01,33,17.10
2008,06,30,01,34,17.10
2008,06,30,01,35,17.00
2008,06,30,01,36,17.00
2008,06,30,01,37,16.90
2008,06,30,01,38,16.90
2008,06,30,01,39,16.90
2008,06,30,01,40,16.80
2008,06,30,01,41,16.80
2008,06,30,01,42,16.70
2008,06,30,01,43,16.70
2008,06,30,01,44,16.70
2008,06,30,01,45,16.60
2008,06,30,01,46,16.40
2008,06,30,01,47,16.40
2008,06,30,01,48,16.40
2008,06,30,01,49,16.40
2008,06,30,01,50,16.30
2008,06,30,01,51,16.10
2008,06,30,01,52,15.90
2008,06,30,01,53,15.80
2008,06,30,01,54,15.80
2008,06,30,01,55,15.80
2008,06,30,01,56,15.80
2008,06,30,01,57,15.80
2008,06,30,01,58,15.80
2008,06,30,01,59,15.80
2008,06,30,02,00,15.80
2008,06,30,02,01,15.80
2008,06,30,02,02,15.80
2008,06,30,02,03,15.90
2008,06,30,02,04,15.90
2008,06,30,02,05,15.90
2008,06,30,02,06,15.90
2008,06,30,02,07,15.90
2008,06,30,02,08,15.90
2008,06,30,02,09,15.90
2008,06,30,02,10,15.90
2008,06,30,02,11,15.90
2008,06,30,02,12,16.10
2008,06,30,02,13,16.10
2008,06,30,02,14,16.10
2008,06,30,02,15,16.10
2008,06,30,02,16,16.20
2008,06,30,02,17,16.30
2008,06,30,02,18,16.40
2008,06,30,02,19,16.60
2008,06,30,02,20,16.70
2008,06,30,02,21,16.90
2008,06,30,02,22,17.10
2008,06,30,02,23,17.20
2008,06,30,02,24,17.30
2008,06,30,02,25,17.30
2008,06,30,02,26,17.40
2008,06,30,02,27,17.50
2008,06,30,02,28,17.60
2008,06,30,02,29,17.70
2008,06,30,02,30,17.70
2008,06,30,02,31,17.80
2008,06,30,02,32,17.80
2008,06,30,02,33,17.80
2008,06,30,02,34,17.80
2008,06,30,02,35,17.80
2008,06,30,02,36,17.90
2008,06,30,02,37,18.00
2008,06,30,02,38,18.20
2008,06,30,02,39,18.20
2008,06,30,02,40,18.20
2008,06,30,02,41,18.20
2008,06,30,02,42,18.20
2008,06,30,02,43,18.20
2008,06,30,02,44,18.30
2008,06,30,02,45,18.30
2008,06,30,02,46,18.40
2008,06,30,02,47,18.40
2008,06,30,02,48,18.50
2008,06,30,02,49,18.50
2008,06,30,02,50,18.60
2008,06,30,02,51,18.70
2008,06,30,02,52,18.70
2008,06,30,02,53,18.70
2008,06,30,02,54,18.70
2008,06,30,02,55,18.70
2008,06,30,02,56,18.70
2008,06,30,02,57,18.60
2008,06,30,02,58,18.50
2008,06,30,02,59,18.50
2008,06,30,03,00,18.30
2008,06,30,03,01,18.10
2008,06,30,03,02,18.00
2008,06,30,03,03,17.90
2008,06,30,03,04,17.90
2008,06,30,03,05,17.80
2008,06,30,03,06,17.80
2008,06,30,03,07,17.80
2008,06,30,03,08,17.80
2008,06,30,03,09,17.80
2008,06,30,03,10,17.70
2008,06,30,03,11,17.70
2008,06,30,03,12,17.70
2008,06,30,03,13,17.70
2008,06,30,03,14,17.70
2008,06,30,03,15,17.70
2008,06,30,03,16,17.70
2008,06,30,03,17,17.70
2008,06,30,03,18,17.70
2008,06,30,03,19,17.70
2008,06,30,03,20,17.70
2008,06,30,03,21,17.70
2008,06,30,03,22,17.70
2008,06,30,03,23,17.80
2008,06,30,03,24,17.80
2008,06,30,03,25,17.90
2008,06,30,03,26,17.90
2008,06,30,03,27,17.90
2008,06,30,03,28,17.90
2008,06,30,03,29,18.00
2008,06,30,03,30,18.10
2008,06,30,03,31,18.10
2008,06,30,03,32,18.10
2008,06,30,03,33,18.10
2008,06,30,03,34,18.10
2008,06,30,03,35,18.10
2008,06,30,03,36,18.10
2008,06,30,03,37,18.10
2008,06,30,03,38,18.10
2008,06,30,03,39,18.10
2008,06,30,03,40,18.20
2008,06,30,03,41,18.20
2008,06,30,03,42,18.20
2008,06,30,03,43,18.20
2008,06,30,03,44,18.20
2008,06,30,03,45,18.20
2008,06,30,03,46,18.20
2008,06,30,03,47,18.20
2008,06,30,03,48,18.10
2008,06,30,03,49,17.90
2008,06,30,03,50,17.90
2008,06,30,03,51,17.80
2008,06,30,03,52,17.80
2008,06,30,03,53,17.70
2008,06,30,03,54,17.60
2008,06,30,03,55,17.50
2008,06,30,03,56,17.40
2008,06,30,03,57,17.30
2008,06,30,03,58,17.30
2008,06,30,03,59,17.20
2008,06,30,04,00,17.20
2008,06,30,04,01,17.10
2008,06,30,04,02,17.10
2008,06,30,04,03,17.10
2008,06,30,04,04,17.10
2008,06,30,04,05,17.10
2008,06,30,04,06,17.10
2008,06,30,04,07,17.10
2008,06,30,04,08,17.10
2008,06,30,04,09,17.10
2008,06,30,04,10,17.10
2008,06,30,04,11,17.10
2008,06,30,04,12,17.20
2008,06,30,04,13,17.20
2008,06,30,04,14,17.20
2008,06,30,04,15,17.20
2008,06,30,04,16,17.20
2008,06,30,04,17,17.20
2008,06,30,04,18,17.20
2008,06,30,04,19,17.20
2008,06,30,04,20,17.20
2008,06,30,04,21,17.20
2008,06,30,04,22,17.20
2008,06,30,04,23,17.20
2008,06,30,04,24,17.30
2008,06,30,04,25,17.30
2008,06,30,04,26,17.30
2008,06,30,04,27,17.30
2008,06,30,04,28,17.30
2008,06,30,04,29,17.30
2008,06,30,04,30,17.30
2008,06,30,04,31,17.30
2008,06,30,04,32,17.30
2008,06,30,04,33,17.30
2008,06,30,04,34,17.30
2008,06,30,04,35,17.30
2008,06,30,04,36,17.30
2008,06,30,04,37,17.30
2008,06,30,04,38,17.30
2008,06,30,04,39,17.30
2008,06,30,04,40,17.30
2008,06,30,04,41,17.30
2008,06,30,04,42,17.30
2008,06,30,04,43,17.30
2008,06,30,04,44,17.30
2008,06,30,04,45,17.20
2008,06,30,04,46,17.20
2008,06,30,04,47,17.10
2008,06,30,04,48,17.10
2008,06,30,04,49,17.10
2008,06,30,04,50,17.00
2008,06,30,04,51,17.00
2008,06,30,04,52,17.00
2008,06,30,04,53,17.00
2008,06,30,04,54,17.00
2008,06,30,04,55,17.00
2008,06,30,04,56,17.00
2008,06,30,04,57,17.00
2008,06,30,04,58,17.00
2008,06,30,04,59,17.00
2008,06,30,05,00,17.00
2008,06,30,05,01,17.00
2008,06,30,05,02,17.00
2008,06,30,05,03,17.00
2008,06,30,05,04,17.00
2008,06,30,05,05,17.00
2008,06,30,05,06,17.00
2008,06,30,05,07,17.00
2008,06,30,05,08,17.00
2008,06,30,05,09,17.00
2008,06,30,05,10,17.00
2008,06,30,05,11,16.90
2008,06,30,05,12,16.90
2008,06,30,05,13,16.90
2008,06,30,05,14,16.90
2008,06,30,05,15,16.90
2008,06,30,05,16,16.90
2008,06,30,05,17,16.90
2008,06,30,05,18,16.90
2008,06,30,05,19,16.90
2008,06,30,05,20,16.90
2008,06,30,05,21,17.00
2008,06,30,05,22,17.00
2008,06,30,05,23,17.00
2008,06,30,05,24,17.10
2008,06,30,05,25,17.10
2008,06,30,05,26,17.20
2008,06,30,05,27,17.20
2008,06,30,05,28,17.30
2008,06,30,05,29,17.30
2008,06,30,05,30,17.30
2008,06,30,05,31,17.30
2008,06,30,05,32,17.30
2008,06,30,05,33,17.30
2008,06,30,05,34,17.30
2008,06,30,05,35,17.30
2008,06,30,05,36,17.30
2008,06,30,05,37,17.30
2008,06,30,05,38,17.30
2008,06,30,05,39,17.30
2008,06,30,05,40,17.30
2008,06,30,05,41,17.30
2008,06,30,05,42,17.30
2008,06,30,05,43,17.30
2008,06,30,05,44,17.30
2008,06,30,05,45,17.30
2008,06,30,05,46,17.30
2008,06,30,05,47,17.30
2008,06,30,05,48,17.30
2008,06,30,05,49,17.30
2008,06,30,05,50,17.30
2008,06,30,05,51,17.30
2008,06,30,05,52,17.30
2008,06,30,05,53,17.30
2008,06,30,05,54,17.30
2008,06,30,05,55,17.30
2008,06,30,05,56,17.30
2008,06,30,05,57,17.30
2008,06,30,05,58,17.30
2008,06,30,05,59,17.40
2008,06,30,06,00,17.40
2008,06,30,06,01,17.40
2008,06,30,06,02,17.50
2008,06,30,06,03,17.50
2008,06,30,06,04,17.60
2008,06,30,06,05,17.60
2008,06,30,06,06,17.60
2008,06,30,06,07,17.70
2008,06,30,06,08,17.70
2008,06,30,06,09,17.70
2008,06,30,06,10,17.80
2008,06,30,06,11,17.80
2008,06,30,06,12,17.90
2008,06,30,06,13,17.90
2008,06,30,06,14,17.90
2008,06,30,06,15,18.00
2008,06,30,06,16,18.10
2008,06,30,06,17,18.20
2008,06,30,06,18,18.20
2008,06,30,06,19,18.20
2008,06,30,06,20,18.20
2008,06,30,06,21,18.30
2008,06,30,06,22,18.30
2008,06,30,06,23,18.40
2008,06,30,06,24,18.40
2008,06,30,06,25,18.50
2008,06,30,06,26,18.50
2008,06,30,06,27,18.60
2008,06,30,06,28,18.60
2008,06,30,06,29,18.60
2008,06,30,06,30,18.60
2008,06,30,06,31,18.60
2008,06,30,06,32,18.70
2008,06,30,06,33,18.70
2008,06,30,06,34,18.70
2008,06,30,06,35,18.70
2008,06,30,06,36,18.70
2008,06,30,06,37,18.70
2008,06,30,06,38,18.70
2008,06,30,06,39,18.70
2008,06,30,06,40,18.70
2008,06,30,06,41,18.60
2008,06,30,06,42,18.60
2008,06,30,06,43,18.60
2008,06,30,06,44,18.60
2008,06,30,06,45,18.60
2008,06,30,06,46,18.60
2008,06,30,06,47,18.60
2008,06,30,06,48,18.60
2008,06,30,06,49,18.60
2008,06,30,06,50,18.60
2008,06,30,06,51,18.60
2008,06,30,06,52,18.60
2008,06,30,06,53,18.60
2008,06,30,06,54,18.60
2008,06,30,06,55,18.60
2008,06,30,06,56,18.60
2008,06,30,06,57,18.60
2008,06,30,06,58,18.60
2008,06,30,06,59,18.60
2008,06,30,07,00,18.60
2008,06,30,07,01,18.50
2008,06,30,07,02,18.50
2008,06,30,07,03,18.40
2008,06,30,07,04,18.30
2008,06,30,07,05,18.30
2008,06,30,07,06,18.20
2008,06,30,07,07,18.20
2008,06,30,07,08,18.20
2008,06,30,07,09,18.10
2008,06,30,07,10,18.10
2008,06,30,07,11,18.10
2008,06,30,07,12,18.00
2008,06,30,07,13,17.90
2008,06,30,07,14,17.90
2008,06,30,07,15,17.90
2008,06,30,07,16,17.90
2008,06,30,07,17,17.90
2008,06,30,07,18,17.90
2008,06,30,07,19,17.90
2008,06,30,07,20,17.90
2008,06,30,07,21,17.90
2008,06,30,07,22,17.90
2008,06,30,07,23,17.90
2008,06,30,07,24,17.90
2008,06,30,07,25,17.90
2008,06,30,07,26,17.90
2008,06,30,07,27,17.90
2008,06,30,07,28,17.90
2008,06,30,07,29,17.90
2008,06,30,07,30,17.90
2008,06,30,07,31,17.90
2008,06,30,07,32,17.90
2008,06,30,07,33,17.90
2008,06,30,07,34,17.90
2008,06,30,07,35,17.90
2008,06,30,07,36,17.90
2008,06,30,07,37,17.90
2008,06,30,07,38,18.00
2008,06,30,07,39,18.10
2008,06,30,07,40,18.10
2008,06,30,07,41,18.20
2008,06,30,07,42,18.20
2008,06,30,07,43,18.30
2008,06,30,07,44,18.40
2008,06,30,07,45,18.50
2008,06,30,07,46,18.50
2008,06,30,07,47,18.50
2008,06,30,07,48,18.50
2008,06,30,07,49,18.40
2008,06,30,07,50,18.30
2008,06,30,07,51,18.30
2008,06,30,07,52,18.30
2008,06,30,07,53,18.30
2008,06,30,07,54,18.30
2008,06,30,07,55,18.30
2008,06,30,07,56,18.30
2008,06,30,07,57,18.30
2008,06,30,07,58,18.30
2008,06,30,07,59,18.30
2008,06,30,08,00,18.30
2008,06,30,08,01,18.10
2008,06,30,08,02,17.90
2008,06,30,08,03,17.80
2008,06,30,08,04,17.70
2008,06,30,08,05,17.70
2008,06,30,08,06,17.60
2008,06,30,08,07,17.50
2008,06,30,08,08,17.40
2008,06,30,08,09,17.20
2008,06,30,08,10,17.00
2008,06,30,08,11,16.80
2008,06,30,08,12,16.70
2008,06,30,08,13,16.50
2008,06,30,08,14,16.30
2008,06,30,08,15,16.10
2008,06,30,08,16,16.00
2008,06,30,08,17,15.90
2008,06,30,08,18,15.80
2008,06,30,08,19,15.80
2008,06,30,08,20,15.80
2008,06,30,08,21,15.80
2008,06,30,08,22,15.80
2008,06,30,08,23,15.80
2008,06,30,08,24,15.80
2008,06,30,08,25,15.80
2008,06,30,08,26,15.80
2008,06,30,08,27,15.90
2008,06,30,08,28,15.90
2008,06,30,08,29,16.00
2008,06,30,08,30,16.10
2008,06,30,08,31,16.10
2008,06,30,08,32,16.10
2008,06,30,08,33,16.10
2008,06,30,08,34,16.10
2008,06,30,08,35,16.10
2008,06,30,08,36,16.00
2008,06,30,08,37,15.90
2008,06,30,08,38,15.90
2008,06,30,08,39,15.90
2008,06,30,08,40,15.90
2008,06,30,08,41,15.90
2008,06,30,08,42,15.90
2008,06,30,08,43,15.90
2008,06,30,08,44,15.90
2008,06,30,08,45,15.90
2008,06,30,08,46,15.90
2008,06,30,08,47,15.90
2008,06,30,08,48,15.80
2008,06,30,08,49,15.80
2008,06,30,08,50,15.80
2008,06,30,08,51,15.80
2008,06,30,08,52,15.70
2008,06,30,08,53,15.70
2008,06,30,08,54,15.70
2008,06,30,08,55,15.70
2008,06,30,08,56,15.70
2008,06,30,08,57,15.70
2008,06,30,08,58,15.70
2008,06,30,08,59,15.80
2008,06,30,09,00,15.80
2008,06,30,09,01,15.90
2008,06,30,09,02,16.00
2008,06,30,09,03,16.10
2008,06,30,09,04,16.20
2008,06,30,09,05,16.30
2008,06,30,09,06,16.40
2008,06,30,09,07,16.50
2008,06,30,09,08,16.60
2008,06,30,09,09,16.70
2008,06,30,09,10,16.90
2008,06,30,09,11,17.00
2008,06,30,09,12,17.20
2008,06,30,09,13,17.30
2008,06,30,09,14,17.40
2008,06,30,09,15,17.60
2008,06,30,09,16,17.80
2008,06,30,09,17,17.90
2008,06,30,09,18,18.10
2008,06,30,09,19,18.20
2008,06,30,09,20,18.30
2008,06,30,09,21,18.40
2008,06,30,09,22,18.50
2008,06,30,09,23,18.70
2008,06,30,09,24,18.80
2008,06,30,09,25,19.00
2008,06,30,09,26,19.10
2008,06,30,09,27,19.30
2008,06,30,09,28,19.40
2008,06,30,09,29,19.40
2008,06,30,09,30,19.50
2008,06,30,09,31,19.50
2008,06,30,09,32,19.60
2008,06,30,09,33,19.60
2008,06,30,09,34,19.60
2008,06,30,09,35,19.70
2008,06,30,09,36,19.80
2008,06,30,09,37,19.80
2008,06,30,09,38,19.90
2008,06,30,09,39,20.00
2008,06,30,09,40,20.10
2008,06,30,09,41,20.20
2008,06,30,09,42,20.20
2008,06,30,09,43,20.20
2008,06,30,09,44,20.20
2008,06,30,09,45,20.00
2008,06,30,09,46,19.90
2008,06,30,09,47,19.70
2008,06,30,09,48,19.50
2008,06,30,09,49,19.40
2008,06,30,09,50,19.20
2008,06,30,09,51,19.10
2008,06,30,09,52,19.10
2008,06,30,09,53,19.10
2008,06,30,09,54,18.90
2008,06,30,09,55,18.90
2008,06,30,09,56,19.00
2008,06,30,09,57,19.10
2008,06,30,09,58,19.10
2008,06,30,09,59,19.20
2008,06,30,10,00,19.30
2008,06,30,10,01,19.40
2008,06,30,10,02,19.40
2008,06,30,10,03,19.50
2008,06,30,10,04,19.60
2008,06,30,10,05,19.80
2008,06,30,10,06,19.90
2008,06,30,10,07,20.10
2008,06,30,10,08,20.30
2008,06,30,10,09,20.40
2008,06,30,10,10,20.60
2008,06,30,10,11,20.80
2008,06,30,10,12,21.00
2008,06,30,10,13,21.10
2008,06,30,10,14,21.20
2008,06,30,10,15,21.40
2008,06,30,10,16,21.60
2008,06,30,10,17,21.60
2008,06,30,10,18,21.60
2008,06,30,10,19,21.50
2008,06,30,10,20,21.30
2008,06,30,10,21,21.10
2008,06,30,10,22,20.90
2008,06,30,10,23,20.80
2008,06,30,10,24,20.60
2008,06,30,10,25,20.40
2008,06,30,10,26,20.40
2008,06,30,10,27,20.40
2008,06,30,10,28,20.50
2008,06,30,10,29,20.50
2008,06,30,10,30,20.60
2008,06,30,10,31,20.60
2008,06,30,10,32,20.70
2008,06,30,10,33,20.70
2008,06,30,10,34,20.60
2008,06,30,10,35,20.60
2008,06,30,10,36,20.60
2008,06,30,10,37,20.60
2008,06,30,10,38,20.70
2008,06,30,10,39,20.80
2008,06,30,10,40,20.90
2008,06,30,10,41,21.10
2008,06,30,10,42,21.30
2008,06,30,10,43,21.50
2008,06,30,10,44,21.60
2008,06,30,10,45,21.60
2008,06,30,10,46,21.60
2008,06,30,10,47,21.70
2008,06,30,10,48,21.70
2008,06,30,10,49,21.50
2008,06,30,10,50,21.40
2008,06,30,10,51,21.40
2008,06,30,10,52,21.40
2008,06,30,10,53,21.40
2008,06,30,10,54,21.30
2008,06,30,10,55,21.10
2008,06,30,10,56,21.00
2008,06,30,10,57,20.90
2008,06,30,10,58,20.90
2008,06,30,10,59,21.00
2008,06,30,11,00,21.00
2008,06,30,11,01,21.10
2008,06,30,11,02,21.10
2008,06,30,11,03,21.10
2008,06,30,11,04,21.00
2008,06,30,11,05,21.10
2008,06,30,11,06,21.20
2008,06,30,11,07,21.30
2008,06,30,11,08,21.50
2008,06,30,11,09,21.70
2008,06,30,11,10,21.90
2008,06,30,11,11,22.10
2008,06,30,11,12,22.30
2008,06,30,11,13,22.50
2008,06,30,11,14,22.60
2008,06,30,11,15,22.80
2008,06,30,11,16,22.90
2008,06,30,11,17,22.90
2008,06,30,11,18,23.10
2008,06,30,11,19,23.20
2008,06,30,11,20,23.30
2008,06,30,11,21,23.30
2008,06,30,11,22,23.40
2008,06,30,11,23,23.40
2008,06,30,11,24,23.30
2008,06,30,11,25,23.20
2008,06,30,11,26,23.00
2008,06,30,11,27,22.90
2008,06,30,11,28,22.80
2008,06,30,11,29,22.70
2008,06,30,11,30,22.60
2008,06,30,11,31,22.60
2008,06,30,11,32,22.60
2008,06,30,11,33,22.60
2008,06,30,11,34,22.70
2008,06,30,11,35,22.70
2008,06,30,11,36,22.70
2008,06,30,11,37,22.80
2008,06,30,11,38,22.90
2008,06,30,11,39,22.90
2008,06,30,11,40,23.10
2008,06,30,11,41,23.20
2008,06,30,11,42,23.30
2008,06,30,11,43,23.20
2008,06,30,11,44,23.20
2008,06,30,11,45,23.10
2008,06,30,11,46,23.20
2008,06,30,11,47,23.30
2008,06,30,11,48,23.40
2008,06,30,11,49,23.70
2008,06,30,11,50,23.70
2008,06,30,11,51,23.90
2008,06,30,11,52,23.90
2008,06,30,11,53,23.90
2008,06,30,11,54,24.00
2008,06,30,11,55,24.10
2008,06,30,11,56,24.10
2008,06,30,11,57,24.10
2008,06,30,11,58,24.10
2008,06,30,11,59,24.10
2008,06,30,12,00,24.10
2008,06,30,12,01,24.00
2008,06,30,12,02,23.90
2008,06,30,12,03,23.70
2008,06,30,12,04,23.60
2008,06,30,12,05,23.60
2008,06,30,12,06,23.60
2008,06,30,12,07,23.60
2008,06,30,12,08,23.70
2008,06,30,12,09,23.70
2008,06,30,12,10,23.60
2008,06,30,12,11,23.60
2008,06,30,12,12,23.40
2008,06,30,12,13,23.40
2008,06,30,12,14,23.30
2008,06,30,12,15,23.30
2008,06,30,12,16,23.30
2008,06,30,12,17,23.30
2008,06,30,12,18,23.30
2008,06,30,12,19,23.30
2008,06,30,12,20,23.30
2008,06,30,12,21,23.20
2008,06,30,12,22,23.10
2008,06,30,12,23,23.10
2008,06,30,12,24,23.10
2008,06,30,12,25,23.10
2008,06,30,12,26,23.00
2008,06,30,12,27,22.90
2008,06,30,12,28,22.90
2008,06,30,12,29,22.90
2008,06,30,12,30,22.90
2008,06,30,12,31,23.10
2008,06,30,12,32,23.20
2008,06,30,12,33,23.30
2008,06,30,12,34,23.30
2008,06,30,12,35,23.50
2008,06,30,12,36,23.60
2008,06,30,12,37,23.70
2008,06,30,12,38,23.80
2008,06,30,12,39,23.90
2008,06,30,12,40,24.10
2008,06,30,12,41,24.10
2008,06,30,12,42,24.30
2008,06,30,12,43,24.40
2008,06,30,12,44,24.50
2008,06,30,12,45,24.60
2008,06,30,12,46,24.70
2008,06,30,12,47,24.70
2008,06,30,12,48,24.70
2008,06,30,12,49,24.70
2008,06,30,12,50,24.80
2008,06,30,12,51,24.90
2008,06,30,12,52,25.00
2008,06,30,12,53,24.90
2008,06,30,12,54,24.90
2008,06,30,12,55,24.90
2008,06,30,12,56,25.00
2008,06,30,12,57,25.00
2008,06,30,12,58,25.10
2008,06,30,12,59,25.10
2008,06,30,13,00,25.10
2008,06,30,13,01,25.10
2008,06,30,13,02,25.10
2008,06,30,13,03,25.20
2008,06,30,13,04,25.20
2008,06,30,13,05,25.20
2008,06,30,13,06,25.20
2008,06,30,13,07,25.40
2008,06,30,13,08,25.40
2008,06,30,13,09,25.50
2008,06,30,13,10,25.60
2008,06,30,13,11,25.60
2008,06,30,13,12,25.70
2008,06,30,13,13,25.70
2008,06,30,13,14,25.70
2008,06,30,13,15,25.70
2008,06,30,13,16,25.80
2008,06,30,13,17,25.80
2008,06,30,13,18,25.80
2008,06,30,13,19,25.70
2008,06,30,13,20,25.60
2008,06,30,13,21,25.60
2008,06,30,13,22,25.60
2008,06,30,13,23,25.70
2008,06,30,13,24,25.70
2008,06,30,13,25,25.70
2008,06,30,13,26,25.80
2008,06,30,13,27,25.90
2008,06,30,13,28,25.90
2008,06,30,13,29,26.00
2008,06,30,13,30,26.10
2008,06,30,13,31,26.10
2008,06,30,13,32,26.10
2008,06,30,13,33,26.10
2008,06,30,13,34,26.00
2008,06,30,13,35,26.00
2008,06,30,13,36,25.90
2008,06,30,13,37,25.90
2008,06,30,13,38,25.90
2008,06,30,13,39,25.80
2008,06,30,13,40,25.80
2008,06,30,13,41,25.70
2008,06,30,13,42,25.80
2008,06,30,13,43,25.70
2008,06,30,13,44,25.70
2008,06,30,13,45,25.70
2008,06,30,13,46,25.70
2008,06,30,13,47,25.90
2008,06,30,13,48,26.00
2008,06,30,13,49,26.00
2008,06,30,13,50,25.90
2008,06,30,13,51,25.90
2008,06,30,13,52,25.80
2008,06,30,13,53,25.60
2008,06,30,13,54,25.50
2008,06,30,13,55,25.40
2008,06,30,13,56,25.30
2008,06,30,13,57,25.30
2008,06,30,13,58,25.30
2008,06,30,13,59,25.10
2008,06,30,14,00,25.00
2008,06,30,14,01,24.90
2008,06,30,14,02,24.80
2008,06,30,14,03,24.70
2008,06,30,14,04,24.80
2008,06,30,14,05,24.90
2008,06,30,14,06,24.90
2008,06,30,14,07,24.90
2008,06,30,14,08,24.80
2008,06,30,14,09,24.80
2008,06,30,14,10,24.80
2008,06,30,14,11,24.80
2008,06,30,14,12,24.90
2008,06,30,14,13,25.00
2008,06,30,14,14,25.10
2008,06,30,14,15,25.10
2008,06,30,14,16,25.20
2008,06,30,14,17,25.30
2008,06,30,14,18,25.40
2008,06,30,14,19,25.50
2008,06,30,14,20,25.50
2008,06,30,14,21,25.40
2008,06,30,14,22,25.40
2008,06,30,14,23,25.40
2008,06,30,14,24,25.30
2008,06,30,14,25,25.20
2008,06,30,14,26,25.20
2008,06,30,14,27,25.10
2008,06,30,14,28,25.20
2008,06,30,14,29,25.20
2008,06,30,14,30,25.20
2008,06,30,14,31,25.30
2008,06,30,14,32,25.40
2008,06,30,14,33,25.40
2008,06,30,14,34,25.50
2008,06,30,14,35,25.70
2008,06,30,14,36,25.80
2008,06,30,14,37,25.80
2008,06,30,14,38,25.80
2008,06,30,14,39,25.90
2008,06,30,14,40,25.90
2008,06,30,14,41,26.00
2008,06,30,14,42,26.10
2008,06,30,14,43,26.10
2008,06,30,14,44,26.20
2008,06,30,14,45,26.20
2008,06,30,14,46,26.20
2008,06,30,14,47,26.10
2008,06,30,14,48,26.20
2008,06,30,14,49,26.10
2008,06,30,14,50,26.00
2008,06,30,14,51,26.20
2008,06,30,14,52,26.20
2008,06,30,14,53,26.20
2008,06,30,14,54,26.20
2008,06,30,14,55,26.10
2008,06,30,14,56,26.00
2008,06,30,14,57,26.00
2008,06,30,14,58,26.00
2008,06,30,14,59,26.00
2008,06,30,15,00,26.10
2008,06,30,15,01,26.20
2008,06,30,15,02,26.20
2008,06,30,15,03,26.30
2008,06,30,15,04,26.40
2008,06,30,15,05,26.60
2008,06,30,15,06,26.70
2008,06,30,15,07,26.80
2008,06,30,15,08,26.90
2008,06,30,15,09,27.10
2008,06,30,15,10,27.00
2008,06,30,15,11,26.90
2008,06,30,15,12,26.90
2008,06,30,15,13,26.90
2008,06,30,15,14,26.90
2008,06,30,15,15,27.00
2008,06,30,15,16,27.10
2008,06,30,15,17,27.10
2008,06,30,15,18,27.10
2008,06,30,15,19,27.00
2008,06,30,15,20,27.00
2008,06,30,15,21,27.10
2008,06,30,15,22,27.10
2008,06,30,15,23,27.10
2008,06,30,15,24,27.00
2008,06,30,15,25,26.90
2008,06,30,15,26,26.80
2008,06,30,15,27,26.80
2008,06,30,15,28,26.80
2008,06,30,15,29,26.80
2008,06,30,15,30,26.80
2008,06,30,15,31,26.80
2008,06,30,15,32,26.80
2008,06,30,15,33,26.80
2008,06,30,15,34,26.80
2008,06,30,15,35,26.70
2008,06,30,15,36,26.60
2008,06,30,15,37,26.60
2008,06,30,15,38,26.50
2008,06,30,15,39,26.40
2008,06,30,15,40,26.30
2008,06,30,15,41,26.20
2008,06,30,15,42,26.10
2008,06,30,15,43,26.00
2008,06,30,15,44,26.00
2008,06,30,15,45,26.00
2008,06,30,15,46,26.00
2008,06,30,15,47,25.90
2008,06,30,15,48,25.70
2008,06,30,15,49,25.60
2008,06,30,15,50,25.50
2008,06,30,15,51,25.50
2008,06,30,15,52,25.50
2008,06,30,15,53,25.50
2008,06,30,15,54,25.50
2008,06,30,15,55,25.50
2008,06,30,15,56,25.50
2008,06,30,15,57,25.50
2008,06,30,15,58,25.50
2008,06,30,15,59,25.40
2008,06,30,16,00,25.40
2008,06,30,16,01,25.40
2008,06,30,16,02,25.30
2008,06,30,16,03,25.20
2008,06,30,16,04,25.10
2008,06,30,16,05,25.10
2008,06,30,16,06,25.30
2008,06,30,16,07,25.40
2008,06,30,16,08,25.50
2008,06,30,16,09,25.60
2008,06,30,16,10,25.70
2008,06,30,16,11,25.70
2008,06,30,16,12,25.60
2008,06,30,16,13,25.60
2008,06,30,16,14,25.60
2008,06,30,16,15,25.60
2008,06,30,16,16,25.50
2008,06,30,16,17,25.50
2008,06,30,16,18,25.40
2008,06,30,16,19,25.40
2008,06,30,16,20,25.50
2008,06,30,16,21,25.60
2008,06,30,16,22,25.60
2008,06,30,16,23,25.60
2008,06,30,16,24,25.60
2008,06,30,16,25,25.60
2008,06,30,16,26,25.70
2008,06,30,16,27,25.80
2008,06,30,16,28,25.80
2008,06,30,16,29,25.70
2008,06,30,16,30,25.70
2008,06,30,16,31,25.90
2008,06,30,16,32,25.90
2008,06,30,16,33,26.00
2008,06,30,16,34,26.00
2008,06,30,16,35,26.00
2008,06,30,16,36,26.10
2008,06,30,16,37,26.10
2008,06,30,16,38,26.30
2008,06,30,16,39,26.50
2008,06,30,16,40,26.60
2008,06,30,16,41,26.80
2008,06,30,16,42,26.80
2008,06,30,16,43,26.90
2008,06,30,16,44,26.90
2008,06,30,16,45,27.00
2008,06,30,16,46,27.10
2008,06,30,16,47,27.20
2008,06,30,16,48,27.20
2008,06,30,16,49,27.10
2008,06,30,16,50,27.10
2008,06,30,16,51,27.10
2008,06,30,16,52,27.10
2008,06,30,16,53,27.00
2008,06,30,16,54,26.90
2008,06,30,16,55,26.80
2008,06,30,16,56,26.90
2008,06,30,16,57,27.00
2008,06,30,16,58,27.10
2008,06,30,16,59,27.10
2008,06,30,17,00,27.20
2008,06,30,17,01,27.20
2008,06,30,17,02,27.20
2008,06,30,17,03,27.10
2008,06,30,17,04,27.10
2008,06,30,17,05,27.10
2008,06,30,17,06,27.20
2008,06,30,17,07,27.20
2008,06,30,17,08,27.20
2008,06,30,17,09,27.20
2008,06,30,17,10,27.00
2008,06,30,17,11,26.80
2008,06,30,17,12,26.70
2008,06,30,17,13,26.60
2008,06,30,17,14,26.60
2008,06,30,17,15,26.60
2008,06,30,17,16,26.60
2008,06,30,17,17,26.60
2008,06,30,17,18,26.60
2008,06,30,17,19,26.60